Location: Vihti�l�
(61.3833°N, 23.0667°E)
Time: 03:39:43
(UTC+00:00)

Cosmos 1812 - Pass Details

Date: 29 November 2020
Orbit: 517 x 520 km, 82.5° (Epoch: 19 January)

Event Time Altitude Azimuth Distance (km) Brightness Sun altitude
Exits shadow 04:08:13 58° 299° (WNW) 612 2.7 -19.7°
Maximum altitude 04:08:40 65° 260° (W) 579 2.6 -19.7°
Drops below altitude 10° 04:12:29 10° 179° (S) 1,753 5.5 -19.2°
Sets 04:14:37 0° 176° (S) 2,636 6.5 -19.0°
